Location: Owatonna
(44.0840°N, 93.2260°W)
Time: 22:08:42
(UTC-06:00)

Tiangong 1 - Visible Passes

Search period start: 24 November 2017 00:00
Search period end: 04 December 2017 00:00
Orbit: 283 x 307 km, 42.8° (Epoch: 24 November)

Date Brightness Start Highest point End Pass type
(mag) Time Alt. Az. Time Alt. Az. Time Alt. Az.
24 Nov 3.2 18:15:08 10° S 18:15:53 12° SSE 18:15:53 12° SSE visible
25 Nov 2.7 18:20:36 10° SSW 18:22:06 20° S 18:22:06 20° S visible
26 Nov 2.3 18:26:27 10° SW 18:28:09 28° SSW 18:28:09 28° SSW visible
27 Nov 2.4 18:32:24 10° WSW 18:34:01 30° SW 18:34:01 30° SW visible
28 Nov 2.3 17:04:12 10° SW 17:06:24 25° SSE 17:08:36 10° E visible
28 Nov 2.8 18:38:20 10° WSW 18:39:43 27° WSW 18:39:43 27° WSW visible
29 Nov 1.6 17:09:43 10° SW 17:12:10 37° SSE 17:14:36 10° E visible
29 Nov 3.2 18:44:10 10° W 18:45:18 22° W 18:45:18 22° W visible
30 Nov 1.1 17:15:17 10° WSW 17:17:51 53° S 17:20:22 10° E visible
30 Nov 3.6 18:49:53 10° W 18:50:45 18° W 18:50:45 18° W visible
01 Dec 0.8 17:20:49 10° W 17:23:24 64° S 17:25:46 11° E visible
01 Dec 3.9 18:55:29 10° W 18:56:06 15° W 18:56:06 15° W visible
02 Dec 0.8 17:26:15 10° W 17:28:50 64° S 17:31:03 13° ESE visible
02 Dec 4.2 19:01:01 10° W 19:01:23 13° WSW 19:01:23 13° WSW visible
03 Dec 1.1 17:31:33 10° W 17:34:06 54° S 17:36:18 13° ESE visible
03 Dec 4.4 19:06:36 10° WSW 19:06:37 10° WSW 19:06:37 10° WSW visible
